Location: Newark
(33.6439°N, 114.9881°W)
Time: 03:31:58
(UTC+00:00)

Tiros 1 - Pass Details

Date: 30 July 2019
Orbit: 631 x 664 km, 48.4° (Epoch: 24 August)

Event Time Altitude Azimuth Distance (km) Brightness Sun altitude
Rises 17:49:41 0° 282° (WNW) 2,971 10.3 59.9°
Reaches altitude 10° 17:52:45 10° 302° (WNW) 2,067 9.6 60.4°
Maximum altitude 17:55:56 18° 344° (NNW) 1,631 9.2 61.0°
Drops below altitude 10° 17:59:09 10° 27° (NNE) 2,079 9.9 61.7°
Sets 18:02:15 0° 47° (NE) 2,995 10.7 62.2°
